Regional Weather Roundup
Issued by NWS State College, PA

Home | Current Version | Previous Version | Text Only | Print | Product List | Glossary On
Versions: 1 2 3 4 5 6 7 8 9 10 11 12 13 14 15 16 17 18 19 20 21 22 23 24 25 26 27 28 29 30 31 32 33 34 35 36 37 38 39 40 41 42 43 44 45 46 47 48 49 50
000
ASUS41 KCTP 272310
RWRCTP

REGIONAL WEATHER ROUNDUP
NATIONAL WEATHER SERVICE STATE COLLEGE PA
600 PM EST FRI FEB 27 2015

Note: "fair" indicates few or no clouds below 12,000 feet with no
significant weather and/or obstructions to visibility.

* = STATION THAT DOES NOT REPORT PRECIPITATION /E.G. RAIN...SNOW...ETC/
    THUNDER OR FOG.

PAZ002>004-007>009-013>016-020>023-029>032-280000-
WESTERN PENNSYLVANIA

CITY           SKY/WX    TMP DP  RH WIND       PRES   REMARKS
ERIE           CLEAR      9  -1  64 W5        30.60R WCI   1
MEADVILLE        N/A      9  -5  53 W6        30.51R WCI  -1
FRANKLIN*      CLEAR      9  -6  52 W8        30.52R WCI  -4
NEW CASTLE     FAIR      12  -5  46 CALM      30.57R
BEAVER COUNTY  NOT AVBL
BUTLER*        CLEAR     12  -4  48 NW5       30.55R WCI   4
PITTSBURGH INT PTCLDY    15  -2  46 NW10      30.54R WCI   2
PITTSBURGH     CLEAR     15  -7  37 NW8       30.52R WCI   4
INDIANA*       CLEAR     14  -4  44 NW9       30.54R WCI   2
LATROBE        PTCLDY    16   0  48 CALM      30.54R
WASHINGTON CO* CLEAR     16  -2  45 W6        30.55R WCI   7
$$

PAZ004>006-010>012-017>019-024>028-033>037-041-042-045-046-049>053-280000-
CENTRAL PENNSYLVANIA

CITY           SKY/WX    TMP DP  RH WIND       PRES   REMARKS
BRADFORD       CLEAR      7  -8  50 NW10      30.41R WCI  -8
DUBOIS         CLEAR     12  -6  44 W10       30.43R WCI  -1
CLEARFIELD     MIX PCPN  15  -6  39 W9        30.46R WCI   3
JOHNSTOWN      CLEAR     11  -3  53 W12       30.39R WCI  -3
ALTOONA        CLEAR     15  -2  46 W10       30.46R WCI   2
STATE COLLEGE  PTCLDY    18  -2  41 W13       30.47R WCI   4
WILLIAMSPORT   CLOUDY    25   0  33 W9        30.47R
SELINSGROVE    CLEAR     24   3  40 W6        30.49R
FT INDIANTOWN  CLEAR     24   3  39 W7        30.48R
CAPITAL CITY   CLEAR     25   4  40 NW6       30.50R
HARRISBURG     PTCLDY    25   6  44 N9        30.49R
YORK           CLEAR     24   6  46 NW5       30.48R
$$

PAZ038>040-043-044-047-048-054-055-060>062-067>071-280000-
EASTERN PENNSYLVANIA

CITY           SKY/WX    TMP DP  RH WIND       PRES   REMARKS
SCRANTON       CLEAR     19  -1  41 N8        30.43R WCI   9
MOUNT POCONO     N/A    N/A N/A N/A MISG      30.34R
ALLENTOWN      CLEAR     24   3  40 W9        30.47R WCI  14
QUAKERTOWN*    CLEAR     23   3  42 W6        30.47R
READING        CLEAR     23   4  44 NW12      30.49R WCI  12
LANCASTER      CLEAR     23   7  50 NW12      30.48R WCI  12
COATESVILLE    CLEAR     25   9  50 NW7       30.48R
POTTSTOWN      CLEAR     23   5  46 NW6       30.50R
BLUE BELL      CLEAR     28   7  40 NW5       30.48R
DOYLESTOWN     CLEAR     23   4  44 NW8       30.47R WCI  14
WILLOW GROVE   NOT AVBL
NORTH PHILA    CLEAR     28   3  34 NW8       30.51R
PHILADELPHIA   CLEAR     29   5  36 W15       30.51R
$$


USA.gov is the U.S. government's official web portal to all federal, state and local government web resources and services.